Showing default

IRIDIUM 157, 43251

Orbit data source: Space-Track

IRIDIUM 157, 43251 is a payload satellite owned by Iridium (US) in LEO that was launched on Fri, 30 Mar 2018 UTC via an FALCON 9 launch vehicle from the Air Force Western Test Range (AFWTR). Payload-class satellites include a variety of spacecraft equipped with specific instruments for various scientific and technological missions. These include communications satellites like Starlink; space stations such as the ISS; scientific satellites like the Hubble; Earth observation satellites from companies like Planet Labs, Umbra, and HawkEye 360; GPS; miniature CubeSats for education and research; and military/defense satellites.

Loading next visibility...
Identifier
43251, 2018-030C
Orbit
LEO
Country
Flag of USUS
Related business
Manufacturer
OATK SSG Gilbert
Mission
Operational Commercial Communications
Bus & Motor
ELITEBUS, Unknown motor
Mass
860 kg wet, 700 kg dry
Launch date (UTC)
2018-03-30 (7 years ago)
Launch vehicle
FALCON 9
Launch site
Air Force Western Test Range (AFWTR)
Object type
Payload
Rocket body
Debris
Shape & HBR
Trap Box + 2 Pan, 4.7 m
Radar Cross Section
14.423 m², Large (>1 m²)

Expand to show TLE details & history
Last TLE update: 14 hours ago

TLE from 14 hours ago
0 IRIDIUM 157
1 43251U 18030C   25258.36800136  .00000249  00000-0  81878-4 0  9997
2 43251  86.3955  45.2872 0001900  91.3466 268.7947 14.34218999390746
Epoch: 2025-09-15T08:49Z
TLE epoch observation values (Epoch: 2025-09-15T08:49:55.317Z)
Latitude
-0.00007°
Longitude
-81.76695°
Altitude
780.743 km
Speed
7.463 km/s
True Right ascension
03h 01m 08s
True Declination
0° 00' 00"
Sunlit
Object was in full shadow at epoch
Visualization orbit readout
Latitude
Unknown
Longitude
Unknown
Altitude
Unknown
Speed
Unknown
Apparent Right ascension
Unknown
Apparent Declination
Unknown
Sunlit
N/A
Visualization observer readout
Local Sidereal Time
15:46:24
Azimuth
Unknown
Elevation
Unknown
Doppler factor
Unknown
Orbital elements
Apogee altitude
775.987 km
Perigee altitude
773.268 km
Semi-major axis
7,152.765 km
Eccentricity
0.00019
Inclination
86.3955°
RAAN
45.2872°
Arg. of periapsis
91.3466°
True anomaly
268.77293°
Mean anomaly
268.7947°
Eccentric anomaly
268.78382°
Mean motion
3.58783 °/min
Orbital period
100.34 mins
BSTAR
0.000081878
Loading maneuver chart data...
Computing Atmospheric mass density...
Loading historical data...
Loading historical data...
Loading historical data...
Loading historical data...
Loading historical data...
Loading historical data...
Loading historical data...

Documentation

Showing up to 5 results
|